Regional Weather Roundup
Issued by NWS

Current Version | Previous Version | Text Only | Print | Product List | Glossary On
Versions: 1 2 3 4 5 6 7 8 9 10 11 12 13 14 15 16 17 18 19 20 21 22 23 24 25 26 27 28 29 30 31 32 33 34 35 36 37 38 39 40 41 42 43 44 45 46 47 48 49 50
000
ASUS46 KSEW 061110
RWRWA

WASHINGTON REGIONAL WEATHER ROUNDUP
NATIONAL WEATHER SERVICE SEATTLE WA
400 AM PDT FRI MAY 06 2016

NOTE:"FAIR" INDICATES FEW OR NO CLOUDS BELOW 12,000 FEET WITH NO
SIGNIFICANT WEATHER AND/OR OBSTRUCTIONS TO VISIBILITY.

WAZ505-507>509-061200-
SEATTLE, TACOMA, EVERETT, AND VICINITY

CITY           SKY/WX    TMP DP  RH WIND       PRES   REMARKS
EVERETT        CLEAR     50  42  74 N3        30.07R
BOEING FIELD   CLEAR     54  47  77 CALM      30.06R
RENTON         PTCLDY    52  48  86 CALM      30.06R
SEATAC AIRPORT PTCLDY    55  45  68 N7        30.06S
JBLM-MCCHORD   CLEAR     46  45  99 SW1       30.05R
PUYALLUP       FAIR      48  48 100 CALM      30.05S
BREMERTON      CLEAR     43  41  93 CALM      30.09R
JBLM-FT LEWIS  CLEAR     47  47  99 CALM      30.05R
TACOMA NARROWS CLEAR     51  45  79 CALM      30.07R
$$

WAZ001-503-506-510-514-515-061200-
NORTH INTERIOR

CITY           SKY/WX    TMP DP  RH WIND       PRES   REMARKS
BELLINGHAM     CLEAR     44  42  93 CALM      30.09R
FRIDAY HARBOR  CLEAR     58  43  57 N10G20    30.09R
EASTSOUND      CLEAR     57  46  67 N17       30.08S
PORT ANGELES   CLEAR     47  41  80 SE5       30.10R
EDIZ HOOK      FAIR      51  45  79 S6        30.10R
PORT TOWNSEND  FAIR      57  41  54 NW6       30.08S
NAS WHIDBEY    PTCLDY    46  44  93 CALM      30.11S
ARLINGTON      CLEAR     45  37  76 NW3       30.09R
BURLINGTON     CLEAR     46  45  93 NW3       30.08S
$$

WAZ020-022-039-040-504-511-512-061200-
SOUTHWEST INTERIOR

CITY           SKY/WX    TMP DP  RH WIND       PRES   REMARKS
SHELTON        CLEAR     44  41  89 SW3       30.04S
OLYMPIA        CLEAR     46  44  93 CALM      30.06R
CHEHALIS       FAIR      46  46 100 CALM      30.05S
KELSO          CLEAR     50  43  76 CALM      30.06S
VANCOUVER      MOCLDY    55  47  74 CALM      30.00S
SCAPPOOSE, OR  PTCLDY    57  46  66 N5        29.99S
PORTLAND, OR   MOCLDY    57  46  66 CALM      30.01S
$$

WAZ021-516-517-061200-
WASHINGTON COAST

CITY           SKY/WX    TMP DP  RH WIND       PRES   REMARKS
FORKS          CLEAR     40  38  93 NE3       30.08S
HOQUIAM        CLEAR     46  45  96 CALM      30.06F
ASTORIA, OR    CLEAR     46  44  93 CALM      30.04F
$$

WAZ019-023-024-040-518-519-061200-
CASCADE MOUNTAINS AND COLUMBIA GORGE

CITY           SKY/WX    TMP DP  RH WIND       PRES   REMARKS
STAMPEDE PASS  MOCLDY    44  41  89 SW5       30.07F
TROUTDALE, OR  PTCLDY    53  49  86 CALM      30.00S
THE DALLES, OR CLOUDY    59  50  72 CALM      29.97R
$$

WAZ026-027-041>044-520-521-061200-
EAST SLOPES

CITY           SKY/WX    TMP DP  RH WIND       PRES   REMARKS
OMAK           PTCLDY    56  40  55 NW15      30.06S
WENATCHEE      MOCLDY    54  47  77 NW7       30.03R
ELLENSBURG     MOCLDY    54  45  71 N7        30.01S
YAKIMA         MOCLDY    53  46  77 W3        30.01R
$$

WAZ028-034-035-061200-
COLUMBIA BASIN

CITY           SKY/WX    TMP DP  RH WIND       PRES   REMARKS
EPHRATA        CLOUDY    59  39  47 N17       29.98S
MOSES LAKE     CLOUDY    55  42  61 N9        29.98S
PASCO          PTCLDY    53  46  77 E6        29.98R
HERMISTON, OR  CLOUDY    60  48  64 SE5       29.96R
$$

WAZ036>038-061200-
NORTHEAST WASHINGTON

CITY           SKY/WX    TMP DP  RH WIND       PRES   REMARKS
SPOKANE GEIGER MOCLDY    54  48  80 N6        29.98R
SPOKANE FELTS  MOCLDY    56  50  80 CALM      29.99R
FAIRCHILD AFB  MOCLDY    52  49  90 N7        29.98R
COEURDALENE,ID MOCLDY   N/A N/A N/A N14G21    29.96R
DEER PARK      CLOUDY    54  48  80 N6        30.00S
$$

WAZ029>033-061200-
SOUTHEAST WASHINGTON

CITY           SKY/WX    TMP DP  RH WIND       PRES   REMARKS
PULLMAN        CLEAR     54  52  93 NE3       29.98S
LEWISTON, ID   MOCLDY    57  54  89 S7        29.95R
WALLA WALLA    PTCLDY    54  50  86 S7        29.96R
PENDLETON, OR  CLOUDY    55  47  74 CALM      29.98R
$$



USA.gov is the U.S. government's official web portal to all federal, state and local government web resources and services.